Year,Month,Day,Hour,Minute,Value (Times are PST for temperature in C)
2010,09,26,00,00,16.30
2010,09,26,00,01,16.30
2010,09,26,00,02,16.30
2010,09,26,00,03,16.30
2010,09,26,00,04,16.30
2010,09,26,00,05,16.30
2010,09,26,00,06,16.30
2010,09,26,00,07,16.30
2010,09,26,00,08,16.30
2010,09,26,00,09,16.30
2010,09,26,00,10,16.30
2010,09,26,00,11,16.30
2010,09,26,00,12,16.20
2010,09,26,00,13,16.20
2010,09,26,00,14,16.20
2010,09,26,00,15,16.20
2010,09,26,00,16,16.20
2010,09,26,00,17,16.20
2010,09,26,00,18,16.20
2010,09,26,00,19,16.20
2010,09,26,00,20,16.20
2010,09,26,00,21,16.20
2010,09,26,00,22,16.20
2010,09,26,00,23,16.20
2010,09,26,00,24,16.20
2010,09,26,00,25,16.20
2010,09,26,00,26,16.20
2010,09,26,00,27,16.20
2010,09,26,00,28,16.20
2010,09,26,00,29,16.20
2010,09,26,00,30,16.20
2010,09,26,00,31,16.20
2010,09,26,00,32,16.20
2010,09,26,00,33,16.20
2010,09,26,00,34,16.20
2010,09,26,00,35,16.20
2010,09,26,00,36,16.20
2010,09,26,00,37,16.20
2010,09,26,00,38,16.20
2010,09,26,00,39,16.20
2010,09,26,00,40,16.20
2010,09,26,00,41,16.20
2010,09,26,00,42,16.20
2010,09,26,00,43,16.20
2010,09,26,00,44,16.20
2010,09,26,00,45,16.20
2010,09,26,00,46,16.20
2010,09,26,00,47,16.20
2010,09,26,00,48,16.20
2010,09,26,00,49,16.20
2010,09,26,00,50,16.10
2010,09,26,00,51,16.10
2010,09,26,00,52,16.10
2010,09,26,00,53,16.10
2010,09,26,00,54,16.10
2010,09,26,00,55,16.10
2010,09,26,00,56,16.00
2010,09,26,00,57,16.00
2010,09,26,00,58,16.00
2010,09,26,00,59,16.00
2010,09,26,01,00,15.90
2010,09,26,01,01,15.90
2010,09,26,01,02,15.90
2010,09,26,01,03,15.90
2010,09,26,01,04,15.90
2010,09,26,01,05,15.90
2010,09,26,01,06,15.90
2010,09,26,01,07,15.90
2010,09,26,01,08,15.90
2010,09,26,01,09,15.90
2010,09,26,01,10,15.80
2010,09,26,01,11,15.80
2010,09,26,01,12,15.80
2010,09,26,01,13,15.80
2010,09,26,01,14,15.80
2010,09,26,01,15,15.80
2010,09,26,01,16,15.80
2010,09,26,01,17,15.80
2010,09,26,01,18,15.80
2010,09,26,01,19,15.80
2010,09,26,01,20,15.80
2010,09,26,01,21,15.80
2010,09,26,01,22,15.80
2010,09,26,01,23,15.70
2010,09,26,01,24,15.70
2010,09,26,01,25,15.70
2010,09,26,01,26,15.70
2010,09,26,01,27,15.70
2010,09,26,01,28,15.70
2010,09,26,01,29,15.70
2010,09,26,01,30,15.70
2010,09,26,01,31,15.70
2010,09,26,01,32,15.70
2010,09,26,01,33,15.60
2010,09,26,01,34,15.60
2010,09,26,01,35,15.60
2010,09,26,01,36,15.60
2010,09,26,01,37,15.50
2010,09,26,01,38,15.50
2010,09,26,01,39,15.40
2010,09,26,01,40,15.40
2010,09,26,01,41,15.40
2010,09,26,01,42,15.30
2010,09,26,01,43,15.30
2010,09,26,01,44,15.30
2010,09,26,01,45,15.30
2010,09,26,01,46,15.30
2010,09,26,01,47,15.30
2010,09,26,01,48,15.30
2010,09,26,01,49,15.30
2010,09,26,01,50,15.30
2010,09,26,01,51,15.20
2010,09,26,01,52,15.20
2010,09,26,01,53,15.10
2010,09,26,01,54,15.10
2010,09,26,01,55,15.10
2010,09,26,01,56,15.00
2010,09,26,01,57,15.00
2010,09,26,01,58,15.00
2010,09,26,01,59,15.00
2010,09,26,02,00,15.00
2010,09,26,02,01,15.00
2010,09,26,02,02,15.00
2010,09,26,02,03,15.00
2010,09,26,02,04,15.00
2010,09,26,02,05,15.00
2010,09,26,02,06,15.00
2010,09,26,02,07,15.00
2010,09,26,02,08,15.00
2010,09,26,02,09,15.00
2010,09,26,02,10,15.00
2010,09,26,02,11,15.00
2010,09,26,02,12,15.00
2010,09,26,02,13,15.00
2010,09,26,02,14,15.00
2010,09,26,02,15,15.00
2010,09,26,02,16,15.00
2010,09,26,02,17,15.00
2010,09,26,02,18,15.10
2010,09,26,02,19,15.10
2010,09,26,02,20,15.10
2010,09,26,02,21,15.10
2010,09,26,02,22,15.10
2010,09,26,02,23,15.10
2010,09,26,02,24,15.10
2010,09,26,02,25,15.10
2010,09,26,02,26,15.20
2010,09,26,02,27,15.20
2010,09,26,02,28,15.20
2010,09,26,02,29,15.20
2010,09,26,02,30,15.20
2010,09,26,02,31,15.20
2010,09,26,02,32,15.20
2010,09,26,02,33,15.20
2010,09,26,02,34,15.20
2010,09,26,02,35,15.30
2010,09,26,02,36,15.30
2010,09,26,02,37,15.30
2010,09,26,02,38,15.30
2010,09,26,02,39,15.30
2010,09,26,02,40,15.30
2010,09,26,02,41,15.30
2010,09,26,02,42,15.30
2010,09,26,02,43,15.30
2010,09,26,02,44,15.30
2010,09,26,02,45,15.30
2010,09,26,02,46,15.30
2010,09,26,02,47,15.30
2010,09,26,02,48,15.30
2010,09,26,02,49,15.30
2010,09,26,02,50,15.30
2010,09,26,02,51,15.30
2010,09,26,02,52,15.30
2010,09,26,02,53,15.30
2010,09,26,02,54,15.30
2010,09,26,02,55,15.30
2010,09,26,02,56,15.30
2010,09,26,02,57,15.30
2010,09,26,02,58,15.30
2010,09,26,02,59,15.30
2010,09,26,03,00,15.30
2010,09,26,03,01,15.30
2010,09,26,03,02,15.30
2010,09,26,03,03,15.40
2010,09,26,03,04,15.40
2010,09,26,03,05,15.40
2010,09,26,03,06,15.40
2010,09,26,03,07,15.40
2010,09,26,03,08,15.30
2010,09,26,03,09,15.30
2010,09,26,03,10,15.30
2010,09,26,03,11,15.30
2010,09,26,03,12,15.30
2010,09,26,03,13,15.30
2010,09,26,03,14,15.30
2010,09,26,03,15,15.30
2010,09,26,03,16,15.30
2010,09,26,03,17,15.30
2010,09,26,03,18,15.20
2010,09,26,03,19,15.20
2010,09,26,03,20,15.20
2010,09,26,03,21,15.20
2010,09,26,03,22,15.20
2010,09,26,03,23,15.20
2010,09,26,03,24,15.20
2010,09,26,03,25,15.20
2010,09,26,03,26,15.20
2010,09,26,03,27,15.20
2010,09,26,03,28,15.20
2010,09,26,03,29,15.20
2010,09,26,03,30,15.20
2010,09,26,03,31,15.20
2010,09,26,03,32,15.20
2010,09,26,03,33,15.20
2010,09,26,03,34,15.20
2010,09,26,03,35,15.20
2010,09,26,03,36,15.20
2010,09,26,03,37,15.20
2010,09,26,03,38,15.20
2010,09,26,03,39,15.20
2010,09,26,03,40,15.20
2010,09,26,03,41,15.10
2010,09,26,03,42,15.10
2010,09,26,03,43,15.10
2010,09,26,03,44,15.10
2010,09,26,03,45,15.10
2010,09,26,03,46,15.10
2010,09,26,03,47,15.10
2010,09,26,03,48,15.10
2010,09,26,03,49,15.10
2010,09,26,03,50,15.00
2010,09,26,03,51,15.00
2010,09,26,03,52,15.00
2010,09,26,03,53,15.00
2010,09,26,03,54,15.00
2010,09,26,03,55,15.00
2010,09,26,03,56,15.00
2010,09,26,03,57,15.00
2010,09,26,03,58,15.00
2010,09,26,03,59,15.00
2010,09,26,04,00,15.00
2010,09,26,04,01,15.00
2010,09,26,04,02,15.00
2010,09,26,04,03,15.00
2010,09,26,04,04,15.10
2010,09,26,04,05,15.10
2010,09,26,04,06,15.10
2010,09,26,04,07,15.10
2010,09,26,04,08,15.10
2010,09,26,04,09,15.10
2010,09,26,04,10,15.10
2010,09,26,04,11,15.10
2010,09,26,04,12,15.10
2010,09,26,04,13,15.20
2010,09,26,04,14,15.10
2010,09,26,04,15,15.10
2010,09,26,04,16,15.10
2010,09,26,04,17,15.00
2010,09,26,04,18,15.00
2010,09,26,04,19,15.00
2010,09,26,04,20,15.00
2010,09,26,04,21,15.00
2010,09,26,04,22,15.00
2010,09,26,04,23,15.00
2010,09,26,04,24,15.00
2010,09,26,04,25,15.00
2010,09,26,04,26,15.00
2010,09,26,04,27,15.00
2010,09,26,04,28,15.00
2010,09,26,04,29,14.90
2010,09,26,04,30,14.90
2010,09,26,04,31,14.90
2010,09,26,04,32,14.90
2010,09,26,04,33,14.90
2010,09,26,04,34,14.90
2010,09,26,04,35,14.90
2010,09,26,04,36,14.80
2010,09,26,04,37,14.80
2010,09,26,04,38,14.80
2010,09,26,04,39,14.80
2010,09,26,04,40,14.80
2010,09,26,04,41,14.80
2010,09,26,04,42,14.80
2010,09,26,04,43,14.80
2010,09,26,04,44,14.80
2010,09,26,04,45,14.80
2010,09,26,04,46,14.80
2010,09,26,04,47,14.80
2010,09,26,04,48,14.80
2010,09,26,04,49,14.80
2010,09,26,04,50,14.80
2010,09,26,04,51,14.90
2010,09,26,04,52,14.90
2010,09,26,04,53,14.90
2010,09,26,04,54,14.90
2010,09,26,04,55,14.90
2010,09,26,04,56,14.90
2010,09,26,04,57,14.90
2010,09,26,04,58,14.90
2010,09,26,04,59,14.90
2010,09,26,05,00,14.90
2010,09,26,05,01,14.90
2010,09,26,05,02,14.90
2010,09,26,05,03,14.90
2010,09,26,05,04,14.90
2010,09,26,05,05,14.90
2010,09,26,05,06,14.90
2010,09,26,05,07,14.90
2010,09,26,05,08,14.80
2010,09,26,05,09,14.80
2010,09,26,05,10,14.80
2010,09,26,05,11,14.80
2010,09,26,05,12,14.80
2010,09,26,05,13,14.80
2010,09,26,05,14,14.80
2010,09,26,05,15,14.80
2010,09,26,05,16,14.80
2010,09,26,05,17,14.80
2010,09,26,05,18,14.80
2010,09,26,05,19,14.80
2010,09,26,05,20,14.80
2010,09,26,05,21,14.80
2010,09,26,05,22,14.80
2010,09,26,05,23,14.80
2010,09,26,05,24,14.80
2010,09,26,05,25,14.80
2010,09,26,05,26,14.80
2010,09,26,05,27,14.80
2010,09,26,05,28,14.80
2010,09,26,05,29,14.80
2010,09,26,05,30,14.80
2010,09,26,05,31,14.80
2010,09,26,05,32,14.80
2010,09,26,05,33,14.80
2010,09,26,05,34,14.90
2010,09,26,05,35,14.90
2010,09,26,05,36,14.90
2010,09,26,05,37,14.80
2010,09,26,05,38,14.80
2010,09,26,05,39,14.90
2010,09,26,05,40,14.90
2010,09,26,05,41,14.80
2010,09,26,05,42,14.90
2010,09,26,05,43,14.90
2010,09,26,05,44,14.90
2010,09,26,05,45,14.90
2010,09,26,05,46,14.90
2010,09,26,05,47,14.90
2010,09,26,05,48,14.90
2010,09,26,05,49,14.90
2010,09,26,05,50,15.00
2010,09,26,05,51,15.00
2010,09,26,05,52,15.00
2010,09,26,05,53,15.00
2010,09,26,05,54,15.00
2010,09,26,05,55,15.00
2010,09,26,05,56,15.00
2010,09,26,05,57,15.00
2010,09,26,05,58,15.00
2010,09,26,05,59,15.00
2010,09,26,06,00,15.00
2010,09,26,06,01,15.00
2010,09,26,06,02,15.00
2010,09,26,06,03,15.00
2010,09,26,06,04,15.00
2010,09,26,06,05,15.00
2010,09,26,06,06,15.00
2010,09,26,06,07,15.00
2010,09,26,06,08,15.00
2010,09,26,06,09,15.00
2010,09,26,06,10,15.00
2010,09,26,06,11,15.00
2010,09,26,06,12,15.00
2010,09,26,06,13,15.00
2010,09,26,06,14,15.00
2010,09,26,06,15,15.00
2010,09,26,06,16,15.00
2010,09,26,06,17,15.00
2010,09,26,06,18,15.00
2010,09,26,06,19,15.00
2010,09,26,06,20,15.00
2010,09,26,06,21,15.00
2010,09,26,06,22,15.00
2010,09,26,06,23,15.00
2010,09,26,06,24,15.00
2010,09,26,06,25,15.00
2010,09,26,06,26,15.00
2010,09,26,06,27,15.00
2010,09,26,06,28,15.00
2010,09,26,06,29,15.00
2010,09,26,06,30,15.00
2010,09,26,06,31,15.00
2010,09,26,06,32,15.00
2010,09,26,06,33,15.00
2010,09,26,06,34,15.00
2010,09,26,06,35,15.00
2010,09,26,06,36,15.00
2010,09,26,06,37,15.00
2010,09,26,06,38,15.00
2010,09,26,06,39,15.00
2010,09,26,06,40,15.00
2010,09,26,06,41,15.00
2010,09,26,06,42,15.00
2010,09,26,06,43,15.00
2010,09,26,06,44,15.00
2010,09,26,06,45,15.00
2010,09,26,06,46,15.00
2010,09,26,06,47,14.90
2010,09,26,06,48,14.90
2010,09,26,06,49,14.90
2010,09,26,06,50,14.90
2010,09,26,06,51,14.90
2010,09,26,06,52,14.90
2010,09,26,06,53,14.90
2010,09,26,06,54,14.90
2010,09,26,06,55,14.80
2010,09,26,06,56,14.80
2010,09,26,06,57,14.80
2010,09,26,06,58,14.80
2010,09,26,06,59,14.80
2010,09,26,07,00,14.80
2010,09,26,07,01,14.80
2010,09,26,07,02,14.80
2010,09,26,07,03,14.80
2010,09,26,07,04,14.80
2010,09,26,07,05,14.80
2010,09,26,07,06,14.80
2010,09,26,07,07,14.80
2010,09,26,07,08,14.80
2010,09,26,07,09,14.80
2010,09,26,07,10,14.80
2010,09,26,07,11,14.80
2010,09,26,07,12,14.80
2010,09,26,07,13,14.80
2010,09,26,07,14,14.80
2010,09,26,07,15,14.80
2010,09,26,07,16,14.80
2010,09,26,07,17,14.80
2010,09,26,07,18,14.80
2010,09,26,07,19,14.80
2010,09,26,07,20,14.80
2010,09,26,07,21,14.80
2010,09,26,07,22,14.80
2010,09,26,07,23,14.80
2010,09,26,07,24,14.80
2010,09,26,07,25,14.80
2010,09,26,07,26,14.80
2010,09,26,07,27,14.80
2010,09,26,07,28,14.80
2010,09,26,07,29,14.80
2010,09,26,07,30,14.80
2010,09,26,07,31,14.80
2010,09,26,07,32,14.80
2010,09,26,07,33,14.80
2010,09,26,07,34,14.80
2010,09,26,07,35,14.80
2010,09,26,07,36,14.80
2010,09,26,07,37,14.80
2010,09,26,07,38,14.80
2010,09,26,07,39,14.80
2010,09,26,07,40,14.80
2010,09,26,07,41,14.80
2010,09,26,07,42,14.80
2010,09,26,07,43,14.80
2010,09,26,07,44,14.80
2010,09,26,07,45,14.80
2010,09,26,07,46,14.80
2010,09,26,07,47,14.80
2010,09,26,07,48,14.80
2010,09,26,07,49,14.80
2010,09,26,07,50,14.80
2010,09,26,07,51,14.80
2010,09,26,07,52,14.80
2010,09,26,07,53,14.80
2010,09,26,07,54,14.90
2010,09,26,07,55,14.90
2010,09,26,07,56,14.90
2010,09,26,07,57,14.90
2010,09,26,07,58,14.90
2010,09,26,07,59,14.90
2010,09,26,08,00,14.90
2010,09,26,08,01,14.90
2010,09,26,08,02,14.90
2010,09,26,08,03,14.90
2010,09,26,08,04,15.00
2010,09,26,08,05,15.00
2010,09,26,08,06,15.00
2010,09,26,08,07,15.00
2010,09,26,08,08,15.00
2010,09,26,08,09,15.00
2010,09,26,08,10,15.00
2010,09,26,08,11,15.00
2010,09,26,08,12,15.00
2010,09,26,08,13,15.00
2010,09,26,08,14,15.00
2010,09,26,08,15,15.00
2010,09,26,08,16,15.00
2010,09,26,08,17,15.00
2010,09,26,08,18,15.00
2010,09,26,08,19,15.00
2010,09,26,08,20,15.00
2010,09,26,08,21,15.00
2010,09,26,08,22,15.00
2010,09,26,08,23,15.00
2010,09,26,08,24,15.00
2010,09,26,08,25,15.00
2010,09,26,08,26,15.00
2010,09,26,08,27,15.00
2010,09,26,08,28,15.00
2010,09,26,08,29,15.00
2010,09,26,08,30,15.00
2010,09,26,08,31,15.00
2010,09,26,08,32,15.00
2010,09,26,08,33,15.00
2010,09,26,08,34,15.00
2010,09,26,08,35,15.00
2010,09,26,08,36,15.00
2010,09,26,08,37,15.10
2010,09,26,08,38,15.10
2010,09,26,08,39,15.10
2010,09,26,08,40,15.20
2010,09,26,08,41,15.20
2010,09,26,08,42,15.20
2010,09,26,08,43,15.20
2010,09,26,08,44,15.30
2010,09,26,08,45,15.30
2010,09,26,08,46,15.30
2010,09,26,08,47,15.30
2010,09,26,08,48,15.40
2010,09,26,08,49,15.40
2010,09,26,08,50,15.40
2010,09,26,08,51,15.40
2010,09,26,08,52,15.40
2010,09,26,08,53,15.40
2010,09,26,08,54,15.40
2010,09,26,08,55,15.40
2010,09,26,08,56,15.40
2010,09,26,08,57,15.40
2010,09,26,08,58,15.50
2010,09,26,08,59,15.50
2010,09,26,09,00,15.60
2010,09,26,09,01,15.60
2010,09,26,09,02,15.60
2010,09,26,09,03,15.60
2010,09,26,09,04,15.60
2010,09,26,09,05,15.60
2010,09,26,09,06,15.60
2010,09,26,09,07,15.60
2010,09,26,09,08,15.60
2010,09,26,09,09,15.60
2010,09,26,09,10,15.60
2010,09,26,09,11,15.60
2010,09,26,09,12,15.60
2010,09,26,09,13,15.70
2010,09,26,09,14,15.70
2010,09,26,09,15,15.70
2010,09,26,09,16,15.70
2010,09,26,09,17,15.70
2010,09,26,09,18,15.70
2010,09,26,09,19,15.70
2010,09,26,09,20,15.70
2010,09,26,09,21,15.70
2010,09,26,09,22,15.80
2010,09,26,09,23,15.80
2010,09,26,09,24,15.80
2010,09,26,09,25,15.80
2010,09,26,09,26,15.80
2010,09,26,09,27,15.80
2010,09,26,09,28,15.80
2010,09,26,09,29,15.80
2010,09,26,09,30,15.90
2010,09,26,09,31,15.90
2010,09,26,09,32,15.90
2010,09,26,09,33,15.90
2010,09,26,09,34,15.90
2010,09,26,09,35,15.90
2010,09,26,09,36,15.90
2010,09,26,09,37,15.90
2010,09,26,09,38,15.90
2010,09,26,09,39,15.90
2010,09,26,09,40,15.90
2010,09,26,09,41,15.90
2010,09,26,09,42,15.90
2010,09,26,09,43,15.90
2010,09,26,09,44,16.00
2010,09,26,09,45,16.00
2010,09,26,09,46,16.10
2010,09,26,09,47,16.10
2010,09,26,09,48,16.10
2010,09,26,09,49,16.10
2010,09,26,09,50,16.10
2010,09,26,09,51,16.10
2010,09,26,09,52,16.10
2010,09,26,09,53,16.10
2010,09,26,09,54,16.20
2010,09,26,09,55,16.20
2010,09,26,09,56,16.20
2010,09,26,09,57,16.30
2010,09,26,09,58,16.30
2010,09,26,09,59,16.30
2010,09,26,10,00,16.30
2010,09,26,10,01,16.30
2010,09,26,10,02,16.40
2010,09,26,10,03,16.40
2010,09,26,10,04,16.40
2010,09,26,10,05,16.40
2010,09,26,10,06,16.40
2010,09,26,10,07,16.40
2010,09,26,10,08,16.50
2010,09,26,10,09,16.50
2010,09,26,10,10,16.60
2010,09,26,10,11,16.60
2010,09,26,10,12,16.60
2010,09,26,10,13,16.60
2010,09,26,10,14,16.70
2010,09,26,10,15,16.70
2010,09,26,10,16,16.70
2010,09,26,10,17,16.80
2010,09,26,10,18,16.80
2010,09,26,10,19,16.90
2010,09,26,10,20,16.90
2010,09,26,10,21,17.00
2010,09,26,10,22,17.00
2010,09,26,10,23,17.00
2010,09,26,10,24,17.10
2010,09,26,10,25,17.10
2010,09,26,10,26,17.10
2010,09,26,10,27,17.20
2010,09,26,10,28,17.20
2010,09,26,10,29,17.20
2010,09,26,10,30,17.30
2010,09,26,10,31,17.30
2010,09,26,10,32,17.30
2010,09,26,10,33,17.30
2010,09,26,10,34,17.30
2010,09,26,10,35,17.30
2010,09,26,10,36,17.30
2010,09,26,10,37,17.40
2010,09,26,10,38,17.30
2010,09,26,10,39,17.30
2010,09,26,10,40,17.30
2010,09,26,10,41,17.30
2010,09,26,10,42,17.30
2010,09,26,10,43,17.30
2010,09,26,10,44,17.30
2010,09,26,10,45,17.40
2010,09,26,10,46,17.40
2010,09,26,10,47,17.30
2010,09,26,10,48,17.40
2010,09,26,10,49,17.40
2010,09,26,10,50,17.40
2010,09,26,10,51,17.40
2010,09,26,10,52,17.40
2010,09,26,10,53,17.40
2010,09,26,10,54,17.40
2010,09,26,10,55,17.40
2010,09,26,10,56,17.50
2010,09,26,10,57,17.50
2010,09,26,10,58,17.60
2010,09,26,10,59,17.60
2010,09,26,11,00,17.60
2010,09,26,11,01,17.70
2010,09,26,11,02,17.70
2010,09,26,11,03,17.80
2010,09,26,11,04,17.80
2010,09,26,11,05,17.80
2010,09,26,11,06,17.80
2010,09,26,11,07,17.80
2010,09,26,11,08,17.90
2010,09,26,11,09,17.90
2010,09,26,11,10,17.90
2010,09,26,11,11,17.90
2010,09,26,11,12,18.00
2010,09,26,11,13,18.00
2010,09,26,11,14,18.10
2010,09,26,11,15,18.10
2010,09,26,11,16,18.20
2010,09,26,11,17,18.10
2010,09,26,11,18,18.10
2010,09,26,11,19,18.10
2010,09,26,11,20,18.00
2010,09,26,11,21,17.90
2010,09,26,11,22,17.90
2010,09,26,11,23,17.80
2010,09,26,11,24,17.80
2010,09,26,11,25,17.70
2010,09,26,11,26,17.70
2010,09,26,11,27,17.60
2010,09,26,11,28,17.60
2010,09,26,11,29,17.50
2010,09,26,11,30,17.50
2010,09,26,11,31,17.40
2010,09,26,11,32,17.40
2010,09,26,11,33,17.30
2010,09,26,11,34,17.30
2010,09,26,11,35,17.30
2010,09,26,11,36,17.20
2010,09,26,11,37,17.20
2010,09,26,11,38,17.20
2010,09,26,11,39,17.20
2010,09,26,11,40,17.20
2010,09,26,11,41,17.20
2010,09,26,11,42,17.20
2010,09,26,11,43,17.20
2010,09,26,11,44,17.20
2010,09,26,11,45,17.20
2010,09,26,11,46,17.20
2010,09,26,11,47,17.20
2010,09,26,11,48,17.20
2010,09,26,11,49,17.20
2010,09,26,11,50,17.20
2010,09,26,11,51,17.20
2010,09,26,11,52,17.20
2010,09,26,11,53,17.20
2010,09,26,11,54,17.20
2010,09,26,11,55,17.20
2010,09,26,11,56,17.20
2010,09,26,11,57,17.20
2010,09,26,11,58,17.10
2010,09,26,11,59,17.10
2010,09,26,12,00,17.10
2010,09,26,12,01,17.10
2010,09,26,12,02,17.10
2010,09,26,12,03,17.10
2010,09,26,12,04,17.10
2010,09,26,12,05,17.10
2010,09,26,12,06,17.10
2010,09,26,12,07,17.10
2010,09,26,12,08,17.10
2010,09,26,12,09,17.20
2010,09,26,12,10,17.20
2010,09,26,12,11,17.20
2010,09,26,12,12,17.20
2010,09,26,12,13,17.10
2010,09,26,12,14,17.10
2010,09,26,12,15,17.10
2010,09,26,12,16,17.10
2010,09,26,12,17,17.10
2010,09,26,12,18,17.10
2010,09,26,12,19,17.10
2010,09,26,12,20,17.10
2010,09,26,12,21,17.00
2010,09,26,12,22,17.00
2010,09,26,12,23,17.00
2010,09,26,12,24,16.90
2010,09,26,12,25,16.90
2010,09,26,12,26,16.90
2010,09,26,12,27,16.90
2010,09,26,12,28,16.90
2010,09,26,12,29,16.90
2010,09,26,12,30,16.90
2010,09,26,12,31,17.00
2010,09,26,12,32,17.00
2010,09,26,12,33,17.00
2010,09,26,12,34,17.10
2010,09,26,12,35,17.10
2010,09,26,12,36,17.10
2010,09,26,12,37,17.10
2010,09,26,12,38,17.10
2010,09,26,12,39,17.10
2010,09,26,12,40,17.00
2010,09,26,12,41,16.90
2010,09,26,12,42,16.90
2010,09,26,12,43,16.90
2010,09,26,12,44,16.90
2010,09,26,12,45,16.80
2010,09,26,12,46,16.80
2010,09,26,12,47,16.70
2010,09,26,12,48,16.70
2010,09,26,12,49,16.70
2010,09,26,12,50,16.80
2010,09,26,12,51,16.80
2010,09,26,12,52,16.80
2010,09,26,12,53,16.80
2010,09,26,12,54,16.80
2010,09,26,12,55,16.80
2010,09,26,12,56,16.90
2010,09,26,12,57,16.90
2010,09,26,12,58,16.90
2010,09,26,12,59,17.00
2010,09,26,13,00,17.00
2010,09,26,13,01,17.00
2010,09,26,13,02,17.10
2010,09,26,13,03,17.20
2010,09,26,13,04,17.30
2010,09,26,13,05,17.30
2010,09,26,13,06,17.30
2010,09,26,13,07,17.40
2010,09,26,13,08,17.50
2010,09,26,13,09,17.50
2010,09,26,13,10,17.60
2010,09,26,13,11,17.70
2010,09,26,13,12,17.70
2010,09,26,13,13,17.80
2010,09,26,13,14,17.80
2010,09,26,13,15,17.90
2010,09,26,13,16,17.90
2010,09,26,13,17,17.90
2010,09,26,13,18,17.90
2010,09,26,13,19,17.90
2010,09,26,13,20,17.90
2010,09,26,13,21,17.90
2010,09,26,13,22,17.90
2010,09,26,13,23,18.00
2010,09,26,13,24,17.90
2010,09,26,13,25,17.90
2010,09,26,13,26,18.00
2010,09,26,13,27,17.90
2010,09,26,13,28,17.90
2010,09,26,13,29,17.90
2010,09,26,13,30,17.90
2010,09,26,13,31,17.90
2010,09,26,13,32,17.90
2010,09,26,13,33,17.90
2010,09,26,13,34,17.90
2010,09,26,13,35,18.00
2010,09,26,13,36,18.00
2010,09,26,13,37,18.00
2010,09,26,13,38,18.10
2010,09,26,13,39,18.10
2010,09,26,13,40,18.10
2010,09,26,13,41,18.10
2010,09,26,13,42,18.10
2010,09,26,13,43,18.10
2010,09,26,13,44,18.10
2010,09,26,13,45,18.10
2010,09,26,13,46,18.10
2010,09,26,13,47,18.10
2010,09,26,13,48,18.20
2010,09,26,13,49,18.20
2010,09,26,13,50,18.20
2010,09,26,13,51,18.30
2010,09,26,13,52,18.40
2010,09,26,13,53,18.40
2010,09,26,13,54,18.50
2010,09,26,13,55,18.50
2010,09,26,13,56,18.60
2010,09,26,13,57,18.60
2010,09,26,13,58,18.60
2010,09,26,13,59,18.70
2010,09,26,14,00,18.70
2010,09,26,14,01,18.60
2010,09,26,14,02,18.60
2010,09,26,14,03,18.60
2010,09,26,14,04,18.60
2010,09,26,14,05,18.60
2010,09,26,14,06,18.60
2010,09,26,14,07,18.60
2010,09,26,14,08,18.70
2010,09,26,14,09,18.70
2010,09,26,14,10,18.70
2010,09,26,14,11,18.70
2010,09,26,14,12,18.70
2010,09,26,14,13,18.70
2010,09,26,14,14,18.80
2010,09,26,14,15,18.80
2010,09,26,14,16,18.80
2010,09,26,14,17,18.80
2010,09,26,14,18,18.80
2010,09,26,14,19,18.80
2010,09,26,14,20,18.80
2010,09,26,14,21,18.80
2010,09,26,14,22,18.80
2010,09,26,14,23,18.80
2010,09,26,14,24,18.80
2010,09,26,14,25,18.90
2010,09,26,14,26,18.90
2010,09,26,14,27,18.90
2010,09,26,14,28,18.90
2010,09,26,14,29,18.90
2010,09,26,14,30,18.90
2010,09,26,14,31,18.90
2010,09,26,14,32,18.90
2010,09,26,14,33,18.90
2010,09,26,14,34,18.90
2010,09,26,14,35,18.90
2010,09,26,14,36,18.90
2010,09,26,14,37,18.80
2010,09,26,14,38,18.90
2010,09,26,14,39,18.90
2010,09,26,14,40,18.80
2010,09,26,14,41,18.80
2010,09,26,14,42,18.80
2010,09,26,14,43,18.80
2010,09,26,14,44,18.70
2010,09,26,14,45,18.70
2010,09,26,14,46,18.70
2010,09,26,14,47,18.70
2010,09,26,14,48,18.70
2010,09,26,14,49,18.60
2010,09,26,14,50,18.60
2010,09,26,14,51,18.60
2010,09,26,14,52,18.60
2010,09,26,14,53,18.60
2010,09,26,14,54,18.60
2010,09,26,14,55,18.60
2010,09,26,14,56,18.60
2010,09,26,14,57,18.50
2010,09,26,14,58,18.40
2010,09,26,14,59,18.40
2010,09,26,15,00,18.30
2010,09,26,15,01,18.20
2010,09,26,15,02,18.20
2010,09,26,15,03,18.20
2010,09,26,15,04,18.10
2010,09,26,15,05,18.10
2010,09,26,15,06,18.00
2010,09,26,15,07,18.00
2010,09,26,15,08,17.90
2010,09,26,15,09,17.90
2010,09,26,15,10,17.90
2010,09,26,15,11,18.00
2010,09,26,15,12,18.00
2010,09,26,15,13,18.00
2010,09,26,15,14,17.90
2010,09,26,15,15,17.90
2010,09,26,15,16,17.90
2010,09,26,15,17,17.80
2010,09,26,15,18,17.80
2010,09,26,15,19,17.80
2010,09,26,15,20,17.80
2010,09,26,15,21,17.70
2010,09,26,15,22,17.70
2010,09,26,15,23,17.70
2010,09,26,15,24,17.60
2010,09,26,15,25,17.60
2010,09,26,15,26,17.50
2010,09,26,15,27,17.50
2010,09,26,15,28,17.50
2010,09,26,15,29,17.50
2010,09,26,15,30,17.40
2010,09,26,15,31,17.40
2010,09,26,15,32,17.40
2010,09,26,15,33,17.40
2010,09,26,15,34,17.40
2010,09,26,15,35,17.40
2010,09,26,15,36,17.40
2010,09,26,15,37,17.40
2010,09,26,15,38,17.50
2010,09,26,15,39,17.50
2010,09,26,15,40,17.60
2010,09,26,15,41,17.60
2010,09,26,15,42,17.60
2010,09,26,15,43,17.60
2010,09,26,15,44,17.60
2010,09,26,15,45,17.60
2010,09,26,15,46,17.60
2010,09,26,15,47,17.70
2010,09,26,15,48,17.70
2010,09,26,15,49,17.70
2010,09,26,15,50,17.70
2010,09,26,15,51,17.70
2010,09,26,15,52,17.70
2010,09,26,15,53,17.70
2010,09,26,15,54,17.80
2010,09,26,15,55,17.80
2010,09,26,15,56,17.80
2010,09,26,15,57,17.80
2010,09,26,15,58,17.80
2010,09,26,15,59,17.80
2010,09,26,16,00,17.70
2010,09,26,16,01,17.80
2010,09,26,16,02,17.80
2010,09,26,16,03,17.80
2010,09,26,16,04,17.80
2010,09,26,16,05,17.80
2010,09,26,16,06,17.70
2010,09,26,16,07,17.70
2010,09,26,16,08,17.70
2010,09,26,16,09,17.60
2010,09,26,16,10,17.60
2010,09,26,16,11,17.50
2010,09,26,16,12,17.50
2010,09,26,16,13,17.40
2010,09,26,16,14,17.40
2010,09,26,16,15,17.40
2010,09,26,16,16,17.40
2010,09,26,16,17,17.40
2010,09,26,16,18,17.40
2010,09,26,16,19,17.40
2010,09,26,16,20,17.40
2010,09,26,16,21,17.40
2010,09,26,16,22,17.40
2010,09,26,16,23,17.40
2010,09,26,16,24,17.40
2010,09,26,16,25,17.40
2010,09,26,16,26,17.40
2010,09,26,16,27,17.40
2010,09,26,16,28,17.30
2010,09,26,16,29,17.30
2010,09,26,16,30,17.40
2010,09,26,16,31,17.30
2010,09,26,16,32,17.30
2010,09,26,16,33,17.30
2010,09,26,16,34,17.30
2010,09,26,16,35,17.30
2010,09,26,16,36,17.30
2010,09,26,16,37,17.30
2010,09,26,16,38,17.30
2010,09,26,16,39,17.30
2010,09,26,16,40,17.30
2010,09,26,16,41,17.30
2010,09,26,16,42,17.30
2010,09,26,16,43,17.30
2010,09,26,16,44,17.30
2010,09,26,16,45,17.30
2010,09,26,16,46,17.20
2010,09,26,16,47,17.20
2010,09,26,16,48,17.20
2010,09,26,16,49,17.20
2010,09,26,16,50,17.20
2010,09,26,16,51,17.20
2010,09,26,16,52,17.20
2010,09,26,16,53,17.20
2010,09,26,16,54,17.20
2010,09,26,16,55,17.20
2010,09,26,16,56,17.20
2010,09,26,16,57,17.20
2010,09,26,16,58,17.20
2010,09,26,16,59,17.10
2010,09,26,17,00,17.10
2010,09,26,17,01,17.10
2010,09,26,17,02,17.10
2010,09,26,17,03,17.10
2010,09,26,17,04,17.10
2010,09,26,17,05,17.00
2010,09,26,17,06,17.00
2010,09,26,17,07,17.00
2010,09,26,17,08,16.90
2010,09,26,17,09,16.90
2010,09,26,17,10,16.90
2010,09,26,17,11,16.90
2010,09,26,17,12,16.90
2010,09,26,17,13,16.90
2010,09,26,17,14,16.80
2010,09,26,17,15,16.80
2010,09,26,17,16,16.80
2010,09,26,17,17,16.80
2010,09,26,17,18,16.80
2010,09,26,17,19,16.80